IV3CGM-13 Weather Reports


Display with metric or nautical units.
time (UTC)temp
F
wind
direction
speed
MPH
gust
MPH
rain 1hr
in
rain 24hr
in
rain mn
in
humidity
%
barometer
mb
20260507055959 57 258 2.0 2.0 0.00 0.00 0.00 95 1012.1
20260507054831 57 180 3.0 3.0 0.00 0.00 0.00 90 1011.9
20260507053615 57 168 2.0 4.0 0.00 0.00 0.00 86 1011.7
20260507052434 56 18 3.0 5.0 0.00 0.00 0.00 90 1011.5
20260507051306 55 289 2.0 7.0 0.00 0.00 0.00 87 1011.4
20260507050138 55 296 2.0 8.0 0.00 0.00 0.00 91 1011.4
20260507045011 54 336 3.0 5.0 0.00 0.00 0.00 90 1011.1
20260507043754 53 294 2.0 6.0 0.00 0.00 0.00 91 1010.9
20260507042613 54 314 3.0 7.0 0.00 0.00 0.00 93 1011.0
20260507041446 54 348 5.0 7.0 0.00 0.00 0.00 92 1011.0
20260507040318 54 306 6.0 6.0 0.00 0.00 0.00 94 1011.0
20260507035151 54 348 3.0 6.0 0.00 0.00 0.00 94 1011.1
20260507033934 53 296 3.0 5.0 0.00 0.00 0.00 98 1011.0
20260507032754 53 289 5.0 5.0 0.00 0.00 0.00 95 1010.9
20260507031626 52 321 2.0 2.0 0.00 0.00 0.00 99 1010.9
20260507030500 53 318 2.0 3.0 0.00 0.00 0.00 99 1010.9
20260507025331 53 306 4.0 4.0 0.00 0.00 0.00 98 1010.9
20260507024115 53 306 2.0 4.0 0.00 0.00 0.00 99 1010.8
20260507022933 53 306 3.0 3.0 0.00 0.00 0.00 99 1010.9
20260507021805 54 314 4.0 4.0 0.00 0.00 0.00 99 1010.8
20260507020638 54 301 4.0 6.0 0.00 0.00 0.00 97 1010.9
20260507015510 54 318 4.0 4.0 0.00 0.00 0.00 98 1010.8
20260507014254 54 341 5.0 5.0 0.00 0.00 0.00 98 1010.9
20260507013112 55 322 4.0 5.0 0.00 0.00 0.00 97 1010.9
20260507011945 55 318 2.0 4.0 0.00 0.00 0.00 99 1010.8
20260507010817 55 306 3.0 4.0 0.00 0.00 0.00 99 1010.9
20260507005650 55 303 2.0 5.0 0.00 0.00 0.00 99 1010.9
20260507004433 55 300 2.0 3.0 0.00 0.00 0.00 99 1010.9
20260507003252 55 300 2.0 4.0 0.00 0.00 0.00 99 1010.9
20260507002125 55 318 3.0 3.0 0.00 0.00 0.00 99 1010.9
20260507000957 55 321 2.0 4.0 0.00 0.00 0.00 99 1011.0
20260506235830 55 318 2.0 4.0 0.00 0.00 0.00 99 1011.0
20260506234613 55 306 3.0 3.0 0.03 0.00 0.00 99 1011.0
20260506233433 55 306 3.0 3.0 0.03 0.00 0.00 99 1011.0
20260506232306 54 306 2.0 2.0 0.03 0.00 0.00 99 1011.1
20260506231137 54 306 2.0 3.0 0.05 0.00 0.00 99 1011.2
20260506230009 54 306 3.0 3.0 0.17 0.00 0.00 99 1011.2
20260506224753 54 306 2.0 4.0 0.39 0.00 2.27 99 1011.2
20260506223612 55 300 3.0 4.0 0.41 0.00 2.27 99 1011.2
20260506222444 55 300 3.0 3.0 0.41 0.00 2.27 99 1011.1
20260506221317 55 313 3.0 4.0 0.41 0.00 2.27 99 1011.1
20260506220149 55 313 4.0 4.0 0.28 0.00 2.15 99 1011.2
20260506214932 55 314 2.0 2.0 0.05 0.00 1.92 99 1011.1
20260506213752 55 311 2.0 5.0 0.00 0.00 1.87 98 1011.0
20260506212624 55 12 2.0 4.0 0.00 0.00 1.87 99 1011.0
20260506211457 55 264 2.0 2.0 0.00 0.00 1.87 99 1011.1
20260506210330 55 264 2.0 2.0 0.00 0.00 1.87 99 1011.1
20260506205113 55 264 2.0 3.0 0.00 0.00 1.87 99 1010.9
20260506203932 55 246 2.0 3.0 0.00 0.00 1.87 99 1011.0
20260506202804 55 96 2.0 5.0 0.00 0.00 1.87 99 1010.9
20260506201637 55 246 4.0 4.0 0.00 0.00 1.87 99 1010.8
20260506200509 55 291 3.0 4.0 0.00 0.00 1.87 99 1010.8
20260506195253 55 291 2.0 2.0 0.00 0.00 1.87 99 1010.7
20260506194112 55 291 2.0 3.0 0.00 0.00 1.87 99 1010.4
20260506192944 55 291 3.0 3.0 0.00 0.00 1.87 99 1010.3
20260506191817 55 291 2.0 2.0 0.00 0.00 1.87 99 1010.3
20260506190649 55 291 2.0 2.0 0.02 0.00 1.87 99 1010.3
20260506185433 55 290 2.0 2.0 0.02 0.00 1.87 99 1010.3
20260506184252 56 290 2.0 2.0 0.02 0.00 1.87 99 1010.2
20260506183124 56 278 2.0 3.0 0.02 0.00 1.87 99 1010.1
20260506181957 56 278 2.0 2.0 0.02 0.00 1.87 99 1010.1
20260506180829 56 278 2.0 2.0 0.00 0.00 1.86 99 1010.1
20260506175613 56 278 0.0 2.0 0.00 0.00 1.86 99 1010.1
20260506174431 56 278 2.0 2.0 0.00 0.00 1.86 99 1009.9
20260506173304 56 96 0.0 2.0 0.02 0.00 1.86 99 1009.8
20260506172137 56 96 2.0 2.0 0.02 0.00 1.86 99 1009.7
20260506171009 55 96 2.0 2.0 0.05 0.00 1.86 99 1009.6
20260506165752 56 96 3.0 3.0 0.08 0.00 1.86 99 1009.6
20260506164612 55 102 2.0 2.0 0.16 0.00 1.86 99 1009.6
20260506163444 55 102 0.0 2.0 0.27 0.00 1.86 99 1009.6
20260506162317 55 102 0.0 2.0 0.36 0.00 1.86 99 1009.4
20260506161149 55 102 0.0 4.0 0.41 0.00 1.84 99 1009.7
20260506155932 55 102 2.0 4.0 0.39 0.00 1.81 99 1009.6
20260506154752 56 24 2.0 2.0 0.33 0.00 1.75 99 1009.6
20260506153624 56 24 2.0 2.0 0.19 0.00 1.61 99 1009.6
20260506152457 56 315 0.0 2.0 0.14 0.00 1.54 99 1009.7
20260506151329 56 234 0.0 2.0 0.14 0.00 1.50 99 1009.7
20260506150113 56 234 0.0 2.0 0.13 0.00 1.43 99 1009.7
20260506144931 56 234 0.0 3.0 0.13 0.00 1.43 99 1009.8
20260506143804 56 234 2.0 5.0 0.13 0.00 1.43 99 1009.9
20260506142637 56 174 4.0 4.0 0.09 0.00 1.40 99 1010.0
20260506141509 57 90 3.0 5.0 0.09 0.00 1.37 99 1010.0
20260506140252 57 115 2.0 4.0 0.08 0.00 1.34 98 1010.2
20260506135112 57 54 0.0 3.0 0.08 0.00 1.31 98 1010.1
20260506133944 57 12 2.0 4.0 0.13 0.00 1.31 98 1010.2
20260506132817 56 303 2.0 4.0 0.17 0.00 1.31 97 1010.3
20260506131650 56 246 2.0 2.0 0.30 0.00 1.31 99 1010.5
20260506130433 56 210 2.0 4.0 0.38 0.00 1.31 99 1010.7
20260506125257 56 114 2.0 4.0 0.38 0.00 1.26 99 1010.7
20260506124112 56 318 2.0 4.0 0.38 0.00 1.23 99 1010.6
20260506122945 55 66 2.0 2.0 0.36 0.00 1.18 99 1010.5
20260506121817 55 78 0.0 2.0 0.35 0.00 1.02 99 1010.5
20260506120600 55 84 2.0 3.0 0.46 0.00 0.96 99 1010.5
20260506115419 55 72 2.0 2.0 0.50 0.00 0.90 99 1010.6
20260506114251 55 72 0.0 3.0 0.52 0.00 0.88 99 1010.6
20260506113124 55 48 2.0 5.0 0.52 0.00 0.87 99 1010.5
20260506111957 55 24 2.0 5.0 0.38 0.00 0.72 98 1010.4
20260506110740 56 270 3.0 6.0 0.22 0.00 0.55 98 1010.6
20260506105559 56 318 2.0 7.0 0.08 0.00 0.41 97 1010.7
20260506104431 57 156 6.0 7.0 0.05 0.00 0.36 99 1010.8
20260506103304 57 132 5.0 8.0 0.05 0.00 0.35 99 1010.7
20260506102136 58 132 4.0 7.0 0.06 0.00 0.35 99 1010.6
20260506101008 57 108 4.0 6.0 0.05 0.00 0.33 99 1010.8
20260506095841 57 78 5.0 7.0 0.05 0.00 0.33 99 1010.9
20260506094727 57 126 3.0 8.0 0.05 0.00 0.31 99 1011.0
20260506093546 57 126 4.0 9.0 0.03 0.00 0.30 99 1011.0
20260506092418 57 126 5.0 7.0 0.05 0.00 0.28 99 1011.1
20260506091250 57 108 2.0 6.0 0.14 0.00 0.28 99 1011.0
20260506090123 56 132 5.0 5.0 0.25 0.00 0.28 99 1010.9
20260506084906 56 90 2.0 4.0 0.27 0.00 0.27 99 1010.7
20260506083725 56 90 0.0 2.0 0.27 0.00 0.27 99 1010.8
20260506082545 56 90 0.0 7.0 0.24 0.00 0.24 99 1010.7
20260506081418 56 348 2.0 6.0 0.17 0.00 0.17 99 1010.6
20260506080258 56 342 2.0 3.0 0.05 0.00 0.05 99 1010.7
20260506072725 55 306 4.0 4.0 0.02 0.00 0.02 99 1010.8
20260506071558 55 306 0.0 0.0 0.02 0.00 0.02 99 1010.8
20260506070431 55 306 2.0 3.0 0.00 0.00 0.00 99 1010.8
20260506061737 56 138 0.0 2.0 0.00 0.00 0.00 96 1011.2